Regional Weather Roundup
Issued by NWS

Home | Current Version | Previous Version | Graphics & Text | Print | Product List | Glossary On
Versions: 1 2 3 4 5 6 7 8 9 10 11 12 13 14 15 16 17 18 19 20 21 22 23 24 25 26 27
000
ASUS45 KCYS 220310
RWRWY

WYOMING REGIONAL WEATHER ROUNDUP
NATIONAL WEATHER SERVICE CHEYENNE WY
800 PM MST TUE NOV 21 2017

NOTE:  "FAIR" INDICATES FEW OR NO CLOUDS BELOW 12,000 FEET
WITH NO SIGNIFICANT WEATHER AND/OR OBSTRUCTIONS TO VISIBILITY.

WYZ001-220400-
YELLOWSTONE NATIONAL PARK

CITY           SKY/WX    TMP DP  RH WIND       PRES   REMARKS
LK YELLOWSTONE   N/A     32  32 100 CALM      30.37S
W YELLOWSTONE  NOT AVBL

$$
WYZ002>013-054>058-071-098>099-220400-
NORTHERN WYOMING

CITY           SKY/WX    TMP DP  RH WIND       PRES   REMARKS
JACKSON        CLOUDY    38  37  97 SE5       30.36R WCI  34
CODY           FAIR      36  29  75 VRB5      30.19S WCI  32
GREYBULL       FAIR      37  31  78 E3        30.20F
WORLAND        FAIR      36  31  82 CALM      30.21R
SHERIDAN       FAIR      32  31  96 CALM      30.14S
BUFFALO        FAIR      33  24  69 SW5       30.14F WCI  29
GILLETTE       FAIR      38  28  67 S14       30.14F WCI  30
HULETT         FAIR      32  27  80 W5        30.16F WCI  27
NEWCASTLE      FAIR      27  21  80 NE3       30.21F

$$
WYZ014>020-022>026-101>103-220400-
CENTRAL WYOMING

CITY           SKY/WX    TMP DP  RH WIND       PRES   REMARKS
BIG PINEY      FAIR      37  31  78 CALM      30.39R
PINEDALE       CLOUDY    34  32  93 NW5       30.39R WCI  30
DUBOIS         FAIR      37  30  75 N13G20    30.30R WCI  29
LANDER         FAIR      41  30  65 CALM      30.21F
RIVERTON       FAIR      40  30  67 E3        30.22F
CASPER         FAIR      43  32  65 SW13      30.21S
DOUGLAS        FAIR      31  28  89 SE6       30.19F WCI  25

$$
WYZ021-027>030-104>119-220400-
SOUTHERN WYOMING

CITY           SKY/WX    TMP DP  RH WIND       PRES   REMARKS
EVANSTON       FAIR      42  36  79 W9        30.43R
KEMMERER       FAIR      37  34  87 W9        30.42S WCI  31
FORT BRIDGER   FAIR      41  38  89 S5        30.45S
ROCK SPRINGS   FAIR      42  33  70 SW9       30.38S
DIXON          FAIR      36  32  87 NE3       30.43R
RAWLINS        FAIR      41  34  76 W18       30.34R
SARATOGA       FAIR      41  32  70 W5        30.37R
LARAMIE        FAIR      34  30  85 SW7       30.28S WCI  28
CHEYENNE       FAIR      34  34 100 SW14      30.26S WCI  25
TORRINGTON     FAIR      34  26  72 E10       30.21F WCI  26
PINE BLUFFS    FAIR      36  32  87 MISG      30.26F

$$




USA.gov is the U.S. government's official web portal to all federal, state and local government web resources and services.